Simultaneous Nadir Overpasses (SNOs) Predictions

Prediction of SNOs between LANDSAT-8 and METOP-A Satellite Orbit:

Table of predicted SNOs for the next 14.0 days since TLE Epoch: 3/14/2015
Index Date (LANDSAT-8) Time (LANDSAT-8) Lat,Lon (LANDSAT-8) SZA (LANDSAT-8 ) Date (METOP-A) Time (METOP-A) Lat,Lon (METOP-A) SZA (METOP-A ) Distance(km) Time Diff (sec)
1 03/16/2015 20:42:06 -81.12, 88.72 95.51 03/16/2015 20:41:51 -81.12, 88.64 95.53 1.35 15
2 03/16/2015 21:31:31 81.14,-103.25 84.54 03/16/2015 21:32:29 81.15,-103.08 84.58 2.97 58
3 03/19/2015 16:16:22 -81.13, 155.33 96.58 03/19/2015 16:16:12 -81.13, 155.44 96.57 1.90 10
4 03/19/2015 17:05:47 81.15, -36.64 83.47 03/19/2015 17:06:51 81.15, -36.69 83.49 1.01 64
5 03/22/2015 11:50:39 -81.13,-138.18 97.65 03/22/2015 11:50:33 -81.13,-138.18 97.66 0.45 6
6 03/22/2015 12:40:04 81.16, 29.83 82.39 03/22/2015 12:41:11 81.16, 30.02 82.44 3.19 67
7 03/25/2015 07:24:59 -81.13, -71.82 98.75 03/25/2015 07:24:55 -81.13, -71.86 98.75 0.82 4
8 03/25/2015 08:14:24 81.15, 96.19 81.30 03/25/2015 08:15:33 81.15, 96.30 81.34 2.01 69
9 03/28/2015 02:59:21 -81.12, -5.59 99.85 03/28/2015 02:59:17 -81.12, -5.60 99.85 0.31 4




NCC Satellite Simultaneous Nadir Overpasses (SNOs) Prediction Service
